Wright-Patt AFB, OH

4:25 AM EDT on July 23, 2017 (GMT -0400)
Wright-Patterson Air Force Base

Weather History for KFFO - March, 2012

Change the Weather History Date:

Thursday, March 1, 2012

  Actual Average Record
Temperature  
Mean Temperature 41 °F -  
Max Temperature 47 °F 43 °F 64 °F (1997)
Min Temperature 34 °F 25 °F 17 °F (2009)
Degree Days  
Heating Degree Days 24    
Moisture  
Dew Point 29 °F    
Average Humidity 63    
Maximum Humidity 81    
Minimum Humidity 50    
Precipitation  
Precipitation 0.00 in - - ()
Sea Level Pressure  
Sea Level Pressure 29.83 in    
Wind  
Wind Speed 14 mph (West)    
Max Wind Speed 28 mph    
Max Gust Speed 37 mph    
Visibility 10 miles    
Events      
Averages and records for this station are not official NWS values.
T = Trace of Precipitation, MM = Missing Value Source: NWS Daily Summary

Daily Weather History Graph

Daily Weather History Graph

Search for Another Location

Airport or City:

Trip Planner

Search our weather history database for the weather conditions in past years. The results will help you decide how hot, cold, wet, or windy it might be!

Date:

Astronomy

Mar. 01, 2012 Rise Set
Actual Time 7:08 AM EST 6:28 PM EST
Civil Twilight 6:41 AM EST 6:55 PM EST
Nautical Twilight 6:10 AM EST 7:27 PM EST
Astronomical Twilight 5:39 AM EST 7:58 PM EST
Moon 11:48 AM EST (3/1) 2:06 AM EST (3/1)
Length of Visible Light 12h 14m
Length of Day
11h 20m
First Quarter, 56% of the Moon is Illuminated
Mar 1
First Quarter
Mar 8
Full
Mar 14
Last Quarter
Mar 22
New
Mar 30
First Quarter

Hourly Weather History & Observations

Time (EST) Temp. Windchill Dew Point Humidity Pressure Visibility Wind Dir Wind Speed Gust Speed Precip Events Conditions
12:55 AM 47.3 °F - 29.8 °F 51% 29.68 in 10.0 mi WSW 17.3 mph 24.2 mph N/A   Scattered Clouds
1:55 AM 46.4 °F 37.5 °F 30.4 °F 54% 29.70 in 10.0 mi WSW 27.6 mph 36.8 mph N/A   Mostly Cloudy
2:31 AM 46.4 °F 38.5 °F 28.4 °F 50% 29.70 in 10.0 mi West 21.9 mph 36.8 mph N/A   Mostly Cloudy
2:55 AM 44.1 °F 36.2 °F 28.4 °F 54% 29.71 in 10.0 mi West 18.4 mph 26.5 mph N/A   Scattered Clouds
3:55 AM 41.4 °F 32.1 °F 27.0 °F 57% 29.72 in 10.0 mi West 20.7 mph 28.8 mph N/A   Partly Cloudy
4:55 AM 39.9 °F 30.8 °F 26.4 °F 59% 29.75 in 10.0 mi West 18.4 mph 25.3 mph N/A   Partly Cloudy
5:55 AM 37.9 °F 30.5 °F 27.3 °F 66% 29.77 in 10.0 mi WSW 11.5 mph - N/A   Partly Cloudy
6:55 AM 37.8 °F 29.4 °F 27.5 °F 67% 29.79 in 10.0 mi West 13.8 mph 24.2 mph N/A   Mostly Cloudy
7:55 AM 37.9 °F 28.9 °F 27.5 °F 66% 29.82 in 10.0 mi WSW 16.1 mph - N/A   Overcast
8:55 AM 38.7 °F 30.9 °F 27.9 °F 65% 29.84 in 10.0 mi West 12.7 mph - N/A   Overcast
9:55 AM 39.0 °F 31.4 °F 28.4 °F 66% 29.86 in 10.0 mi WSW 12.7 mph - N/A   Overcast
10:55 AM 40.5 °F 34.6 °F 28.8 °F 63% 29.89 in 10.0 mi West 9.2 mph - N/A   Overcast
11:55 AM 41.4 °F 36.2 °F 29.3 °F 62% 29.91 in 10.0 mi West 8.1 mph - N/A   Overcast
12:55 PM 41.5 °F 34.2 °F 29.5 °F 62% 29.91 in 10.0 mi SW 13.8 mph - N/A   Overcast
1:55 PM 42.1 °F 34.9 °F 29.8 °F 62% 29.91 in 10.0 mi WSW 13.8 mph - N/A   Mostly Cloudy
2:55 PM 44.2 °F 40.3 °F 30.6 °F 59% 29.89 in 10.0 mi WNW 6.9 mph - N/A   Scattered Clouds
3:55 PM 46.6 °F - 31.3 °F 55% 29.89 in 10.0 mi Variable 6.9 mph - N/A   Partly Cloudy
4:55 PM 46.8 °F - 31.3 °F 55% 29.89 in 10.0 mi Variable 4.6 mph - N/A   Clear
5:55 PM 45.9 °F - 31.5 °F 57% 29.88 in 10.0 mi Calm Calm - N/A   Clear
6:55 PM 41.0 °F 36.4 °F 30.9 °F 67% 29.90 in 10.0 mi NNE 6.9 mph - N/A   Clear
7:55 PM 39.2 °F 37.0 °F 30.4 °F 71% 29.89 in 10.0 mi NNE 3.5 mph - N/A   Clear
8:55 PM 37.8 °F - 30.2 °F 74% 29.89 in 10.0 mi Calm Calm - N/A   Clear
9:55 PM 35.8 °F 31.9 °F 29.7 °F 78% 29.88 in 10.0 mi East 4.6 mph - N/A   Clear
10:55 PM 36.1 °F 32.3 °F 30.4 °F 80% 29.88 in 10.0 mi East 4.6 mph - N/A   Clear
11:55 PM 34.3 °F 31.4 °F 28.9 °F 81% 29.87 in 10.0 mi East 3.5 mph - N/A   Clear